weather.gov     
National Weather Service

Regional Weather Roundup
NWS Homepage
This page is being discontinued on March 12, 2014.
The same data is available at this site. Please update your bookmarks.
Thank you, and we apologize for the inconvenience.
Please send an email to SR-SRH.Webmaster@noaa.gov with any concerns.


Current Version
Previous Version:    01  02  03  04  05  06  07  08  09  10  11  12  13  14  15  16  17  18  19  20  21  22  23  24  25  26  27  28  29  30  
   31  32  33  34  35  36  37  38  39  40  41  42  43  44  45  46  47  48  49  50  51  52  53  54  55  56  57  58  59  60  
[Printable]
234
ASUS43 KEAX 260711
RWREAX

WEATHER ROUNDUP FOR EASTERN KANSAS AND NORTHWEST MISSOURI
NATIONAL WEATHER SERVICE KANSAS CITY/PLEASANT HILL MO
200 AM CDT SUN OCT 26 2014

KSZ040-057-103>105-MOZ028-029-037-043-260800-
...KANSAS CITY METROPOLITAN AREA...

CITY           SKY/WX    TMP DP  RH WIND       PRES   REMARKS
K.C. INTL      CLEAR     62  48  60 E10       29.99S
K.C. DOWNTOWN  CLEAR     59  50  72 E5        29.98F
LEES SUMMIT    CLEAR     62  51  67 SE6       30.00S
OLATHE - IXD   CLEAR     62  56  80 E8        29.99S
OLATHE - OJC   CLEAR     62  55  77 SE8       29.98F
LAWRENCE       CLEAR     59  55  87 E7        29.96F

$$

MOZ001>008-011>017-020>025-030>033-038>040-044>046-053-054-260800-
...NORTHERN AND CENTRAL MISSOURI...

CITY           SKY/WX    TMP DP  RH WIND       PRES   REMARKS
ST. JOSEPH     CLEAR     60  46  59 E5        30.00R
MOSBY          SUNNY     52  52 100 CALM      30.00S
WHITEMAN AFB   CLEAR     59  53  81 SE7       29.99S
CLINTON        CLEAR     57  57 100 E3        30.00S FOG
SEDALIA        CLEAR     60  52  74 E5        30.01F
WARSAW         NOT AVBL
MARSHALL       CLEAR     59  50  72 E6        30.01F
CHILLICOTHE      N/A     58  43  57 CALM      30.03F
MOBERLY        CLEAR     55  41  58 E5        30.04S
KIRKSVILLE     CLEAR     52  41  66 NE7       30.04S

$$

MOZ041-047>049-056>058-063>065-088>090-097-260800-
...EASTERN AND SOUTHERN MISSOURI...

CITY           SKY/WX    TMP DP  RH WIND       PRES   REMARKS
ST. LOUIS INTL CLEAR     56  50  80 CALM      30.02F
SPIRIT OF STL  CLEAR     50  49  96 CALM      30.01S FOG
COLUMBIA       CLEAR     59  48  67 E9        30.02S
JEFFERSON CITY CLEAR     54  53  97 CALM      30.01S
MEXICO         CLEAR     57  52  82 CALM      30.04R
HANNIBAL       CLEAR     57  36  44 NE5       30.03F
ROLLA          CLEAR     58  54  86 E3        30.00S
LEBANON        CLEAR     61  57  88 CALM      30.02S
OSAGE BEACH    CLEAR     55  52  88 CALM      30.01S
SPRINGFIELD    CLEAR     57  56  96 SE6       30.00F FOG
BRANSON        CLEAR     63  59  88 CALM      30.03S
NEVADA         CLEAR     55  55 100 E3        29.98F FOG
JOPLIN         CLEAR     65  62  90 S9        29.98F
WEST PLAINS    CLEAR     57  54  89 CALM      30.02S

$$

IAZ060-094-KSZ022-034>040-054-083-096-NEZ052-066-093-260800-
...KANSAS...SOUTHEAST NEBRASKA AND IOWA...

CITY           SKY/WX    TMP DP  RH WIND       PRES   REMARKS
TOPEKA         CLEAR     62  59  90 E6        29.95F
MANHATTAN      CLEAR     61  57  87 NE3       29.92F
EMPORIA        CLEAR     61  60  97 SE9       29.94F
CHANUTE        CLEAR     63  61  93 SE7       29.96S
WICHITA        CLEAR     63  56  78 S9        29.93S
OMAHA          CLEAR     57  38  48 SE8       29.98F
LINCOLN        CLEAR     57  43  59 E7        29.96F
FALLS CITY     CLEAR     56  46  69 E9        29.97F
LAMONI         CLEAR     52  39  61 NE7       30.03S
DES MOINES     CLEAR     54  34  46 E7        30.04F

$$





U.S. Dept. of Commerce
NOAA National Weather Service
1325 East West Highway
Silver Spring, MD 20910
E-mail: w-nws.webmaster@noaa.gov
Page last modified: May 16, 2007
NATIONAL WEATHER SERVICE: for Safety, for Work, for Fun - FOR LIFE